Regional Weather Roundup
Issued by NWS

Home | Current Version | Previous Version | Graphics & Text | Print | Product List | Glossary On
Versions: 1 2 3 4 5 6 7 8 9 10 11 12 13 14 15 16 17 18 19 20 21 22 23 24 25 26 27 28 29 30 31 32 33 34 35 36 37 38 39 40 41 42 43 44 45 46 47 48 49 50
000
ASUS43 KLMK 281302
RWRKY
KENTUCKY REGIONAL WEATHER ROUNDUP
NATIONAL WEATHER SERVICE LOUISVILLE KY
800 AM EST FRI NOV 28 2014

NOTE "FAIR" INDICATES FEW OR NO CLOUDS BELOW 12,000 FEET
WITH NO SIGNIFICANT WEATHER AND/OR OBSTRUCTIONS TO VISIBILITY.

KYZ001>023-026-027-061>063-070>075-281400-
WESTERN AND SOUTH CENTRAL KENTUCKY

CITY           SKY/WX    TMP DP  RH WIND       PRES   REMARKS
PADUCAH        CLEAR     27  22  81 S7        30.38F WCI  19
HENDERSON      PTCLDY    27  21  80 SE5       30.41S WCI  21
OWENSBORO      PTCLDY    27  25  92 SE6       30.43R FOG     WCI  21
HOPKINSVILLE   PTCLDY    26  24  90 SE5       30.41F WCI  21
BOWLING GREEN  CLOUDY    27  21  78 SE3       30.44F
GLASGOW        NOT AVBL
$$

KYZ024-025-028>034-038-045-046-053-281400-
NORTH CENTRAL KENTUCKY

CITY           SKY/WX    TMP DP  RH WIND       PRES   REMARKS
LOUISVILLE/SDF CLOUDY    27  18  69 SW5       30.42F WCI  22
LOUISVILLE/LOU CLOUDY    27  18  69 S5        30.43S WCI  22
FORT KNOX      CLOUDY    24  21  88 S5        30.40S WCI  18
$$

KYZ035>037-039>044-047>052-055>060-089>105-281400-
NORTHEAST KENTUCKY

CITY           SKY/WX    TMP DP  RH WIND       PRES   REMARKS
LEXINGTON      CLOUDY    25  20  81 SW3       30.41R
COVINGTON      CLOUDY    27  18  69 W6        30.39S WCI  20
FRANKFORT      CLOUDY    26  18  71 SW3       30.41R
$$

KYZ054-064>069-076>088-106>120-281400-
SOUTHEAST KENTUCKY

CITY           SKY/WX    TMP DP  RH WIND       PRES   REMARKS
JACKSON        CLOUDY    26  15  63 VRB5      30.39R WCI  20
LONDON         MOCLDY    26  17  68 CALM      30.40F
SOMERSET       NOT AVBL
MIDDLESBORO    NOT AVBL
MONTICELLO     PTSUNNY   27  21  77 CALM      30.45F
$$



USA.gov is the U.S. government's official web portal to all federal, state and local government web resources and services.